Location: *
(46.1200°N, 11.2700°E)
Time: 10:42:36
(UTC+00:00)

SL-8 Rocket - Pass Details

Date: 02 March 2021
Orbit: 957 x 990 km, 82.9° (Epoch: 17 April)

Event Time Altitude Azimuth Distance (km) Brightness Sun altitude
Rises 19:25:43 0° 196° (SSW) 3,670 7.0 -25.3°
Reaches altitude 10° 19:28:16 10° 199° (SSW) 2,722 6.3 -25.7°
Maximum altitude 19:34:27 65° 281° (W) 1,067 4.3 -26.7°
Drops below altitude 10° 19:40:38 10° 3° (N) 2,717 6.5 -27.7°
Sets 19:43:10 0° 7° (N) 3,664 7.2 -28.1°
